Starlink 11714

operational
NORAD ID: 64134 Int'l Des: 2025-111 Owner: SPXS Country: US Constellation: starlink
LEOCIRCULAR

About Starlink 11714

Description loading...

Live Position

Loading 3D Globe...

Upcoming Passes

Altitude History

Altitude vs Time

uPlot chart will show altitude changes over time

Two-Line Element Set

1 64134U 25111M 26095.58393286 .00295057 00000-0 22128-2 0 9999
2 64134 42.9987 171.3092 0001041 242.4600 117.6162 15.70941486 50875
Epoch: Apr 5, 2026 • Age: 10 hours

Current Status

Altitude 355.5 km
Velocity 7.70 km/s
Sub-Earth Point 24.76°N, 128.53°E
Launch Date May 24, 2025
Age 0.8 years
Type internet

Technical Details

Classification Payload
Mass 960.00 kg
Dry Mass 910.00 kg
Total Mass 960.00 kg
Length 0.30 m
Diameter 4.10 m
Span 29.00 m
Shape Box + pan
Manufacturer SPXS
Bus Type Starlink V2MD
Phase Status In Orbit
Owner/State SPXS/US

Large Constellations

Loading constellations...